Regional Weather Roundup
Issued by NWS Memphis, TN

Home | Current Version | Previous Version | Text Only | Print | Product List | Glossary On
Versions: 1 2 3 4 5 6 7 8 9 10 11 12 13 14 15 16 17 18 19 20 21 22 23 24 25 26 27 28 29 30 31 32 33 34 35 36 37 38 39 40 41 42 43 44 45 46 47 48 49 50
000
ASUS44 KMEG 221310
RWRMEG
MEMPHIS CWA HOURLY WEATHER ROUNDUP
NATIONAL WEATHER SERVICE MEMPHIS TN
700 AM CST WED FEB 22 2017

...WEST TENNESSEE...

CITY           SKY/WX    TMP DP  RH WIND       PRES   REMARKS
MEMPHIS INTL   CLOUDY    59  59 100 E7        29.88F
NWS MEMPHIS      N/A     58 N/A N/A MISG        N/A
JACKSON        FAIR      57  57 100 E6        29.90S
BOLIVAR        CLOUDY    57  57 100 CALM      29.89S
UNION CITY     CLOUDY   N/A N/A N/A CALM      29.88S VSB 1/4
PARIS          CLEAR     54  54 100 SE6       29.89F
HUNTINGDON     CLEAR     55  55 100 CALM      29.88F FOG


...EASTERN ARKANSAS...

CITY           SKY/WX    TMP DP  RH WIND       PRES   REMARKS
JONESBORO      CLOUDY    59  58  96 NE5       29.88S
WEST MEMPHIS   MOCLDY    58  58 100 NE3       29.87S
BATESVILLE     CLOUDY    57  55  94 CALM      29.91S VSB 1/2
NEWPORT        CLOUDY    57  57 100 NW6       29.90R FOG
WALNUT RIDGE   CLOUDY    57  54  88 N3        29.90R
BLYTHEVILLE    FOG       54  54 100 CALM      29.88F VSB 1/4
SEARCY         CLOUDY    57  57 100 N6        29.91S FOG
STUTTGART      CLOUDY    55  50  82 W5        29.90R VSB<1/4
PINE BLUFF     FOG       56  56 100 N3        29.89S VSB 1/2
MONTICELLO     FOG       57  56  96 NW5       29.89R VSB 3/4


...NORTH MISSISSIPPI...

CITY           SKY/WX    TMP DP  RH WIND       PRES   REMARKS
TUPELO         CLOUDY    57  55  93 NW6       29.87R
OXFORD         CLOUDY    55  55 100 CALM      29.89S FOG
BATESVILLE     CLOUDY    58  57  97 NW6       29.89R FOG
OLIVE BRANCH   CLOUDY   N/A N/A N/A NE7       29.88  FOG
TUNICA         FAIR      55  55 100 E3        29.88F
CORINTH        CLOUDY    57  55  94 N6        29.88R
GREENWOOD      CLOUDY    56  54  93 NW3       29.87S FOG
COLUMBUS       FAIR      57  57  99 CALM      29.83F
GOLDEN TRIANGL CLOUDY    59  54  82 NE7       29.81S


...SOUTHEAST MISSOURI...

CITY           SKY/WX    TMP DP  RH WIND       PRES   REMARKS
KENNETT        FOG       55  55 100 NE3       29.88S VSB<1/4
WEST PLAINS    CLOUDY    54  54 100 W5        29.92S FOG
POPLAR BLUFF   CLOUDY    57  57 100 N3        29.90R FOG
CAPE GIRARDEAU CLOUDY    56  54  93 N3        29.91R FOG


...NORTHWEST ALABAMA...

CITY           SKY/WX    TMP DP  RH WIND       PRES   REMARKS
MUSCLE SHOALS  MOCLDY    58  55  90 E5        29.88S


...MIDDLE TENNESSEE...

CITY           SKY/WX    TMP DP  RH WIND       PRES   REMARKS
NASHVILLE      CLOUDY    57  55  93 E5        29.93R FOG
CLARKSVILLE    FAIR      54  53  97 S3        29.91R FOG
COLUMBIA       CLEAR    N/A N/A N/A E5        29.87S


...WESTERN KENTUCKY...

CITY           SKY/WX    TMP DP  RH WIND       PRES   REMARKS
PADUCAH        CLOUDY    57  55  93 CALM      29.90R FOG
FORT CAMPBELL  MOCLDY    56  56 100 SE6       29.89F


...CENTRAL ARKANSAS...

CITY           SKY/WX    TMP DP  RH WIND       PRES   REMARKS
LITTLE ROCK    CLOUDY    56  56 100 NW7       29.90R FOG


SKY/WX REPORTED AS FAIR MEANS FEW OR NO CLOUDS BELOW
12 THOUSAND FEET.





USA.gov is the U.S. government's official web portal to all federal, state and local government web resources and services.